Wind_Speed
52 52 58 55 50 42 36 31 27 27 28 26 20 18 20 19 22 26 31 29 21 19 19 15 10 8 8 6 7 8 10 10 11 12 14 18 21 23 24 25 27 29 32
48 54 58 57 55 46 36 33 29 29 30 32 24 20 20 16 21 21 26 30 24 20 19 17 18 11 11 10 9 8 8 9 12 14 16 14 17 20 23 25 28 28 29
48 55 57 62 62 51 41 33 30 28 29 31 25 22 20 17 19 17 23 26 23 18 17 18 19 18 10 9 13 13 14 14 14 17 17 17 13 11 10 11 13 15 17
46 54 60 62 69 57 45 37 33 35 30 29 26 20 19 19 16 16 18 22 22 19 18 16 16 14 16 12 7 11 13 15 14 14 12 12 11 13 13 14 13 13 13
43 52 60 59 65 67 52 44 37 35 26 28 26 25 20 20 11 15 22 18 22 18 17 14 12 11 12 15 14 8 6 6 5 8 11 13 14 16 17 18 17 17 17
40 49 59 60 60 70 59 49 42 30 24 25 24 24 20 10 15 17 20 21 19 19 17 15 10 10 8 8 9 8 6 8 8 6 4 6 9 11 13 16 16 18 17
39 46 59 61 61 61 70 60 45 30 23 23 23 18 17 14 12 15 18 19 19 18 17 14 11 9 8 8 6 7 8 7 9 9 11 11 12 10 11 13 14 16 18
40 47 59 62 60 64 70 67 50 32 29 29 21 16 18 13 10 14 15 18 16 16 16 17 14 13 10 7 6 6 7 7 6 8 10 13 11 11 16 15 17 15 16
43 45 59 61 63 63 69 68 49 32 32 32 23 21 18 16 11 15 15 16 12 14 18 20 19 17 15 11 9 10 9 9 9 8 9 11 11 13 18 18 21 19 19
42 47 58 62 64 66 68 63 53 36 33 31 26 21 20 15 11 14 22 11 11 16 19 22 20 21 19 15 13 12 12 12 13 13 13 14 13 15 19 21 24 25 26
44 48 57 61 62 65 68 64 53 40 32 29 25 22 17 14 12 10 13 12 15 17 18 22 20 18 20 20 15 14 15 16 15 15 16 19 21 22 24 27 26 27 28
44 48 56 60 61 62 66 63 57 39 36 27 23 21 13 12 11 14 18 16 18 20 15 21 23 19 20 21 22 22 20 21 19 21 23 23 21 24 26 30 28 28 28
42 50 56 58 58 61 62 63 54 34 31 24 26 23 22 22 21 24 21 16 20 26 21 21 22 18 21 20 22 23 24 25 25 23 24 23 25 28 27 28 29 29 29
44 51 59 56 57 59 60 61 46 35 26 23 23 26 28 26 23 26 23 28 27 27 19 20 24 21 20 18 22 24 30 30 26 26 27 26 29 29 29 30 30 32 32
44 51 56 55 54 59 61 54 41 30 24 20 23 29 34 27 27 29 29 26 29 32 29 27 25 19 16 19 23 27 25 26 31 34 34 34 32 33 35 35 35 35 38
46 55 55 53 53 58 61 51 42 32 26 21 21 23 26 28 29 34 32 30 35 38 33 26 24 26 26 25 21 18 24 29 32 36 34 33 37 37 41 42 38 35 35
46 54 54 53 53 58 59 47 40 31 22 24 25 31 29 33 32 37 34 37 33 30 24 24 21 23 25 28 25 27 31 30 36 41 45 40 35 39 39 40 37 30 34
49 52 52 53 55 61 55 50 38 31 24 27 30 27 25 25 28 30 30 28 22 21 24 27 26 27 29 31 31 29 26 34 38 43 46 48 50 53 49 47 41 37 36
52 51 53 53 56 60 51 46 35 31 31 31 34 28 26 27 30 29 27 26 30 30 32 33 35 36 38 37 38 33 33 40 44 47 43 44 47 50 48 50 53 42 47
51 53 53 53 58 55 55 51 32 35 31 30 31 29 37 30 29 32 31 30 30 35 38 36 35 35 37 36 40 39 43 46 47 48 50 51 50 50 52 58 58 56 61
47 50 53 55 59 54 56 49 33 33 32 33 31 29 32 32 32 30 31 33 36 40 38 36 38 40 42 46 43 41 45 47 50 55 50 55 53 46 59 63 53 66 65
46 48 50 58 58 55 56 50 39 34 36 36 32 36 31 32 31 27 31 34 36 36 38 40 42 42 41 45 44 37 46 54 58 58 56 44 57 60 54 52 62 61 67
45 47 55 58 60 58 58 57 43 38 38 37 37 36 29 36 31 33 31 31 35 38 39 43 47 48 51 52 51 51 43 63 60 64 60 57 55 59 61 79 70 69 82
46 50 57 58 60 59 61 56 47 44 40 37 37 34 34 38 33 34 38 35 43 43 42 43 47 47 43 52 58 62 64 66 68 66 65 67 70 68 67 71 84 90 92
53 55 56 58 63 64 63 58 47 49 43 41 37 38 35 37 40 43 46 46 47 49 40 32 34 38 41 37 44 53 56 56 59 68 70 71 67 70 70 80 89 97 99
55 57 58 58 65 66 63 56 52 54 45 42 40 42 43 42 45 47 48 46 47 52 44 40 40 46 54 53 51 55 51 52 54 58 66 61 71 77 80 87 89 93 98
Wind_Direction
8 6 3 10 6 359 351 348 349 338 337 341 340 342 352 4 10 11 7 4 359 6 2 347 321 297 305 293 293 280 270 266 262 258 262 265 263 262 262 261 262 262 259
4 8 8 10 7 1 352 350 348 343 330 332 336 331 330 342 355 2 9 5 355 0 357 360 356 327 278 267 254 266 254 245 263 269 271 264 261 261 262 262 260 259 257
3 8 10 11 8 3 353 349 349 347 339 331 328 344 344 329 333 356 6 1 358 355 2 0 357 348 319 292 267 266 268 268 264 267 273 266 259 256 255 259 266 266 264
0 7 7 10 10 5 355 349 345 343 341 338 334 340 345 338 322 349 1 353 351 345 0 11 4 18 15 3 309 278 283 292 286 263 261 255 254 251 250 247 245 253 262
356 3 2 3 8 8 359 351 346 346 343 342 335 347 340 335 316 346 346 347 343 340 335 351 17 33 26 17 18 5 333 305 324 289 280 278 279 276 273 267 263 266 269
348 355 0 0 2 7 7 355 348 349 342 335 335 345 349 358 337 348 346 344 334 336 329 330 343 9 14 10 10 12 25 21 30 27 346 294 286 288 291 292 288 282 282
342 348 354 357 0 0 7 2 350 343 330 336 328 339 351 338 336 356 346 340 333 330 331 336 330 337 338 357 7 1 348 321 319 334 333 329 316 322 319 308 303 294 288
336 345 352 356 357 1 2 5 353 343 327 336 336 333 346 332 326 344 344 340 334 337 334 332 331 329 332 327 350 1 356 354 336 324 314 317 327 327 317 313 313 295 299
336 342 350 355 357 356 359 4 352 340 330 335 334 326 328 326 300 318 338 349 341 331 335 336 327 321 316 309 310 331 327 337 331 338 337 334 321 313 316 313 316 302 299
329 339 349 354 355 355 357 6 359 338 328 330 335 331 331 320 304 312 346 354 345 336 331 328 323 316 312 312 315 311 315 315 314 311 313 316 317 308 310 311 307 305 301
326 340 348 350 353 352 356 6 1 341 330 328 329 333 339 339 312 331 347 335 344 332 317 327 321 313 326 315 317 310 312 309 306 302 311 305 300 297 300 307 296 293 293
327 345 348 346 349 352 354 3 3 345 335 327 326 333 324 339 339 336 351 334 316 335 315 317 325 322 319 306 307 309 307 307 307 301 301 302 294 292 287 292 298 292 289
330 345 343 340 345 349 353 360 360 346 342 332 323 313 324 315 299 329 329 329 311 317 318 305 315 322 324 317 309 312 313 309 302 297 295 297 296 296 292 294 299 295 297
327 338 335 337 341 347 346 356 354 346 345 337 319 320 316 321 316 321 318 313 312 322 307 308 310 315 309 301 301 306 309 315 314 309 308 303 299 294 293 293 291 292 294
319 330 332 333 337 342 344 354 351 345 345 329 322 316 315 305 321 329 310 310 323 321 314 304 299 310 302 300 316 305 302 307 308 305 306 304 298 293 289 286 287 289 290
317 325 327 329 335 340 342 350 352 342 339 329 324 321 305 307 312 316 315 309 313 314 311 295 292 300 299 275 289 297 293 292 302 301 299 299 298 295 292 287 286 290 289
311 320 320 325 332 336 338 349 350 346 340 338 325 310 301 307 308 305 306 306 305 306 300 292 297 296 293 295 284 286 302 296 292 296 295 295 298 296 296 291 279 282 285
313 319 317 321 330 333 338 346 346 341 336 335 334 324 328 325 309 309 312 309 303 293 291 289 287 286 287 287 292 292 289 293 293 289 294 294 293 294 295 295 290 278 287
315 317 316 320 325 328 337 344 345 334 335 335 330 329 336 326 317 318 306 297 297 297 298 294 296 293 294 294 299 299 287 289 288 290 294 296 299 295 291 296 295 284 285
312 312 312 316 322 325 332 337 333 331 328 331 330 323 328 328 324 319 318 316 310 308 309 309 310 306 302 296 297 298 294 296 296 297 298 296 297 294 285 296 285 295 293
311 306 308 315 318 319 322 332 334 323 325 328 332 324 329 326 324 317 318 313 312 313 313 314 310 305 300 301 299 296 299 299 296 296 296 300 294 288 293 288 283 294 295
308 304 305 313 313 313 318 327 327 322 324 329 333 330 323 321 322 326 320 312 310 311 305 298 295 296 291 290 294 292 291 289 286 288 289 278 277 284 285 286 282 293 287
304 301 309 313 307 308 314 320 323 322 322 324 336 334 317 324 320 315 323 320 316 310 305 295 292 292 291 290 288 287 279 283 281 281 287 278 280 281 270 287 286 284 288
303 305 309 305 299 306 308 316 319 319 321 322 329 329 320 319 314 318 313 304 312 310 312 294 286 285 292 285 279 278 279 281 281 281 284 280 282 278 275 280 284 286 289
305 304 305 299 297 302 305 314 314 316 319 322 325 325 317 315 315 316 313 308 305 313 304 310 319 305 287 290 286 284 285 285 290 286 287 284 284 282 279 282 284 294 299
309 304 304 298 297 300 302 309 310 313 315 318 322 323 316 311 309 313 312 309 314 314 310 315 319 325 307 295 286 285 293 292 301 297 293 296 292 293 294 297 296 295 296
Height
10892 10887 10882 10875 10869 10863 10860 10856 10852 10848 10844 10842 10839 10837 10836 10832 10828 10825 10822 10817 10814 10813 10812 10809 10807 10807 10807 10806 10807 10807 10808 10808 10808 10808 10809 10810 10810 10809 10810 10810 10810 10810 10810
10891 10886 10879 10874 10868 10863 10858 10853 10850 10847 10844 10840 10838 10836 10834 10831 10828 10825 10821 10818 10815 10812 10810 10809 10808 10807 10806 10806 10805 10805 10806 10806 10806 10806 10806 10806 10806 10805 10805 10804 10804 10804 10804
10890 10885 10879 10873 10868 10861 10855 10852 10848 10845 10842 10839 10836 10833 10831 10829 10826 10824 10821 10818 10815 10813 10811 10808 10806 10804 10803 10803 10804 10804 10805 10805 10805 10804 10804 10803 10802 10802 10802 10801 10801 10801 10800
10889 10884 10877 10872 10866 10859 10853 10849 10846 10843 10839 10837 10834 10831 10829 10828 10826 10824 10821 10818 10814 10812 10810 10808 10807 10805 10803 10802 10801 10802 10802 10802 10801 10801 10801 10801 10800 10799 10798 10798 10797 10797 10797
10887 10883 10878 10871 10866 10858 10851 10847 10843 10840 10838 10835 10833 10830 10828 10826 10824 10821 10819 10817 10813 10811 10810 10808 10807 10806 10805 10803 10801 10801 10801 10801 10800 10799 10799 10799 10798 10797 10797 10797 10796 10795 10794
10885 10881 10877 10872 10866 10861 10851 10846 10841 10837 10835 10833 10831 10829 10827 10824 10822 10820 10817 10814 10812 10810 10808 10807 10806 10806 10804 10804 10802 10802 10801 10800 10799 10798 10797 10796 10796 10795 10795 10794 10793 10792 10791
10882 10878 10875 10870 10867 10861 10854 10845 10838 10835 10833 10830 10828 10827 10825 10823 10821 10819 10816 10813 10810 10808 10807 10805 10804 10804 10804 10803 10801 10800 10800 10799 10797 10796 10795 10794 10793 10793 10792 10792 10791 10789 10789
10880 10877 10872 10867 10863 10858 10851 10843 10836 10832 10830 10827 10825 10824 10823 10822 10820 10818 10815 10811 10809 10807 10804 10804 10802 10802 10801 10800 10800 10798 10797 10796 10796 10795 10794 10793 10792 10792 10790 10790 10788 10787 10786
10877 10875 10870 10864 10858 10855 10848 10841 10833 10830 10828 10826 10824 10822 10821 10819 10818 10817 10814 10810 10808 10805 10802 10802 10800 10798 10797 10798 10797 10796 10795 10793 10793 10793 10792 10792 10791 10790 10788 10787 10786 10784 10783
10874 10872 10867 10862 10856 10850 10847 10840 10834 10829 10826 10824 10823 10820 10819 10817 10815 10815 10814 10811 10809 10805 10801 10800 10799 10797 10795 10795 10795 10793 10792 10791 10790 10789 10788 10788 10787 10786 10785 10784 10781 10780 10778
10872 10868 10864 10860 10856 10849 10845 10839 10833 10827 10824 10822 10820 10817 10816 10815 10813 10813 10811 10810 10808 10806 10801 10798 10797 10794 10793 10792 10791 10791 10790 10789 10787 10785 10783 10782 10781 10780 10779 10778 10777 10775 10773
10869 10863 10859 10856 10852 10847 10843 10837 10832 10825 10821 10820 10818 10816 10814 10812 10810 10809 10808 10807 10806 10804 10801 10797 10794 10792 10790 10788 10786 10785 10784 10783 10782 10780 10778 10778 10777 10775 10773 10772 10770 10769 10768
10865 10860 10858 10855 10851 10845 10840 10834 10828 10823 10819 10816 10815 10813 10811 10809 10808 10805 10804 10803 10802 10800 10799 10796 10792 10789 10787 10786 10783 10781 10780 10778 10777 10774 10772 10771 10770 10768 10767 10766 10763 10762 10761
10862 10860 10858 10853 10847 10843 10837 10831 10824 10819 10814 10812 10811 10810 10807 10805 10803 10801 10799 10798 10796 10795 10793 10791 10788 10785 10783 10782 10780 10779 10776 10773 10771 10768 10767 10766 10765 10762 10760 10759 10757 10756 10754
10860 10857 10855 10851 10845 10840 10834 10827 10821 10814 10811 10810 10808 10806 10803 10800 10797 10796 10795 10792 10790 10789 10788 10785 10783 10781 10780 10778 10776 10775 10773 10770 10767 10764 10763 10761 10759 10756 10754 10752 10749 10747 10745
10856 10854 10851 10848 10842 10836 10830 10823 10819 10814 10810 10806 10804 10801 10797 10794 10793 10792 10789 10788 10785 10783 10781 10779 10777 10775 10773 10771 10770 10770 10767 10765 10764 10761 10759 10757 10754 10750 10748 10745 10742 10739 10738
10853 10850 10846 10844 10838 10832 10826 10819 10816 10813 10808 10804 10800 10796 10792 10789 10787 10785 10784 10782 10778 10776 10776 10774 10772 10769 10767 10766 10766 10764 10762 10759 10757 10754 10752 10750 10747 10744 10741 10737 10736 10732 10730
10849 10845 10841 10838 10832 10826 10819 10814 10810 10807 10805 10801 10796 10793 10789 10786 10782 10778 10775 10774 10772 10771 10770 10769 10766 10765 10762 10760 10759 10757 10757 10754 10751 10747 10744 10741 10738 10733 10729 10727 10726 10724 10721
10841 10838 10834 10830 10826 10820 10815 10810 10805 10803 10799 10795 10792 10789 10784 10781 10777 10774 10771 10769 10768 10766 10765 10763 10761 10759 10757 10755 10752 10751 10749 10746 10743 10740 10736 10732 10729 10723 10718 10716 10714 10712 10709
10831 10827 10825 10824 10819 10814 10808 10804 10799 10796 10794 10793 10789 10785 10781 10776 10771 10767 10765 10764 10762 10759 10757 10756 10755 10752 10749 10747 10744 10742 10741 10737 10734 10730 10727 10723 10718 10713 10707 10704 10701 10697 10694
10829 10823 10816 10814 10811 10807 10803 10799 10795 10792 10789 10786 10782 10779 10774 10770 10766 10762 10759 10757 10755 10751 10748 10748 10746 10744 10741 10737 10736 10734 10731 10726 10724 10720 10718 10716 10710 10701 10694 10690 10688 10685 10678
10820 10816 10813 10809 10806 10801 10796 10793 10790 10787 10782 10777 10773 10770 10768 10764 10760 10756 10752 10750 10747 10745 10743 10740 10737 10736 10733 10729 10727 10726 10722 10717 10711 10709 10705 10705 10698 10690 10682 10676 10672 10667 10660
10812 10809 10807 10803 10798 10793 10789 10785 10782 10778 10774 10769 10764 10761 10758 10756 10752 10748 10744 10741 10738 10736 10732 10727 10724 10722 10720 10717 10715 10713 10711 10703 10698 10696 10691 10686 10683 10679 10670 10656 10654 10647 10638
10805 10802 10798 10794 10790 10785 10781 10776 10772 10768 10764 10760 10756 10752 10750 10747 10744 10741 10738 10733 10728 10724 10720 10713 10708 10705 10704 10702 10701 10699 10695 10691 10684 10680 10675 10670 10665 10660 10655 10638 10632 10623 10619
10797 10794 10790 10786 10780 10776 10772 10767 10762 10758 10754 10750 10747 10744 10741 10737 10734 10731 10728 10725 10719 10714 10708 10701 10697 10692 10689 10686 10683 10681 10675 10671 10668 10662 10658 10653 10644 10640 10633 10623 10614 10602 10593
10785 10783 10779 10777 10771 10765 10761 10755 10750 10748 10745 10741 10738 10734 10731 10727 10724 10719 10716 10712 10708 10703 10698 10694 10688 10682 10676 10671 10666 10662 10657 10652 10649 10642 10636 10631 10623 10618 10611 10602 10593 10584 10573